Spokane, WA

11:36 AM PST on December 06, 2016 (GMT -0800)
Felts

Weather History for KSFF - May, 2013

Change the Weather History Date:

Saturday, May 4, 2013

  Actual Average Record
Temperature  
Mean Temperature 59 °F 52 °F  
Max Temperature 74 °F 65 °F 80 °F (1998)
Min Temperature 43 °F 38 °F 30 °F (1999)
Degree Days  
Heating Degree Days 6 14  
Month to date heating degree days 43 56  
Since 1 July heating degree days 5355 5911  
Cooling Degree Days 0 0  
Month to date cooling degree days 0 0  
Year to date cooling degree days 0 0  
Growing Degree Days 8 (Base 50)    
Moisture  
Dew Point 32 °F    
Average Humidity 44    
Maximum Humidity 71    
Minimum Humidity 17    
Precipitation  
Precipitation T in 0.04 in 0.30 in (2014)
Month to date precipitation T 0.16  
Year to date precipitation 4.37 6.30  
Sea Level Pressure  
Sea Level Pressure 30.18 in    
Wind  
Wind Speed 5 mph (NE)    
Max Wind Speed 20 mph    
Max Gust Speed 25 mph    
Visibility 10 miles    
Events      
T = Trace of Precipitation, MM = Missing Value Source: NWS Daily Summary

Daily Weather History Graph

Daily Weather History Graph

Search for Another Location

Airport or City:

Trip Planner

Search our weather history database for the weather conditions in past years. The results will help you decide how hot, cold, wet, or windy it might be!

Date:

Astronomy

May. 04, 2013 Rise Set
Actual Time 5:26 AM PDT 8:06 PM PDT
Civil Twilight 4:51 AM PDT 8:41 PM PDT
Nautical Twilight 4:07 AM PDT 9:25 PM PDT
Astronomical Twilight 3:15 AM PDT 10:18 PM PDT
Moon 2:50 AM PDT (5/4) 2:48 PM PDT (5/4)
Length of Visible Light 15h 49m
Length of Day
14h 39m
Waning Crescent, 26% of the Moon is Illuminated
May 4
Waning Crescent
May 9
New
May 17
First Quarter
May 24
Full
May 31
Last Quarter

Hourly Weather History & Observations

Time (PDT) Temp. Dew Point Humidity Pressure Visibility Wind Dir Wind Speed Gust Speed Precip Events Conditions
12:53 AM 59.0 °F 37.0 °F 44% 30.23 in 10.0 mi ENE 6.9 mph - N/A   Overcast
1:53 AM 57.0 °F 37.9 °F 49% 30.23 in 10.0 mi Calm Calm - 0.00 in   Mostly Cloudy
2:53 AM 52.0 °F 37.9 °F 59% 30.24 in 10.0 mi Calm Calm - N/A   Scattered Clouds
3:53 AM 46.0 °F 37.0 °F 71% 30.26 in 10.0 mi Calm Calm - N/A   Clear
4:53 AM 44.1 °F 36.0 °F 73% 30.27 in 10.0 mi Calm Calm - N/A   Clear
5:53 AM 45.0 °F 36.0 °F 71% 30.27 in 10.0 mi Calm Calm - N/A   Clear
6:53 AM 50.0 °F 39.9 °F 68% 30.27 in 10.0 mi Calm Calm - N/A   Clear
7:53 AM 54.0 °F 39.0 °F 57% 30.28 in 10.0 mi Calm Calm - N/A   Clear
8:53 AM 57.9 °F 37.0 °F 46% 30.27 in 10.0 mi WNW 3.5 mph - N/A   Clear
9:53 AM 64.9 °F 30.9 °F 28% 30.25 in 10.0 mi ENE 16.1 mph 20.7 mph N/A   Clear
10:53 AM 66.9 °F 30.0 °F 25% 30.25 in 10.0 mi NE 9.2 mph 21.9 mph N/A   Partly Cloudy
11:53 AM 70.0 °F 28.9 °F 22% 30.21 in 10.0 mi East 13.8 mph 20.7 mph N/A   Partly Cloudy
12:53 PM 72.0 °F 27.0 °F 19% 30.17 in 10.0 mi ENE 13.8 mph 20.7 mph N/A   Clear
1:53 PM 73.0 °F 27.0 °F 18% 30.15 in 10.0 mi East 13.8 mph 20.7 mph N/A   Scattered Clouds
2:53 PM 72.0 °F 28.9 °F 20% 30.14 in 10.0 mi North 9.2 mph 18.4 mph N/A   Partly Cloudy
3:53 PM 73.0 °F 27.0 °F 18% 30.12 in 10.0 mi ENE 13.8 mph 20.7 mph N/A   Clear
4:53 PM 71.1 °F 27.0 °F 19% 30.12 in 10.0 mi NNE 8.1 mph 16.1 mph N/A   Clear
5:53 PM 72.0 °F 26.1 °F 18% 30.10 in 10.0 mi ENE 11.5 mph 17.3 mph N/A   Clear
6:53 PM 70.0 °F 27.0 °F 20% 30.09 in 10.0 mi Variable 4.6 mph 17.3 mph N/A   Clear
7:53 PM 66.0 °F 27.0 °F 23% 30.08 in 10.0 mi NNE 3.5 mph - N/A   Clear
8:53 PM 62.1 °F 27.0 °F 26% 30.08 in 10.0 mi NE 3.5 mph - N/A   Clear
9:53 PM 55.9 °F 28.9 °F 36% 30.09 in 10.0 mi Calm Calm - N/A   Clear
10:53 PM 52.0 °F 32.0 °F 47% 30.09 in 10.0 mi Calm Calm - N/A   Clear
11:53 PM 50.0 °F 33.1 °F 52% 30.08 in 10.0 mi Calm Calm - N/A   Clear